Погода в Бриакане

Россия / Хабаровский край     52°18′40″N   135°49′36″E
темп.,
°C
ветер,
м/с
пор.,
м/с
влажн.,
%
обл.,
%
осадки,
мм/ч
давл.,
гПа
погр.,
м
22 апреля, чт
чт2201:00−1зюз219556 0.0 102214
04:00−2зюз11955 0.0 102112
07:00+1ююз118316 0.0 102045
10:00+9юв236157 0.0 1018421
13:00+16ююв364713 0.0 1015641
16:00+18ююв4848100 0.0 1012619
19:00+12ююз367494 0.0 1013101
22:00+9ююз2276100 0.0 101423
23 апреля, пт
пт2301:00+10зюз3567100 0.0 101465
04:00+9зюз2271100 0.0 101519
07:00+6всв2288100 0.0 101782
10:00+4ссв3787100 0.1 1021462
13:00+2с2795100 0.4 1023441
16:00+2с3789100 1.1 1024634
19:000ссв3791100 0.8 1025675
22:00−1с2674100 0.9 1026533
24 апреля, сб
сб2401:00−2зсз117764 0.0 102522
04:00−4зюз21825 0.0 102416
07:00−2зюз12710 0.0 1022115
10:00+4зсз24445 0.0 10191323
13:00+6сз5929100 0.0 10162808
16:00+6сз5934100 0.0 10142679
19:00+3ссз2647100 0.1 1014469
22:00−1зюз2288100 0.9 101590
25 апреля, вс
вс2501:00−2зсз227964 0.0 101631
04:00−3зсз217687 0.0 101714
07:00−1зсз136154 0.0 1018110
10:00+3с3630100 0.1 10172841
13:00+4с3626100 0.1 10173134
16:00+4ссв4635100 0.1 10172229
19:00+2с234891 0.1 1019812
22:00−2зюз116486 0.1 102110
26 апреля, пн
пн2601:00−4юз11700 0.0 102112
04:00−4зюз11725 0.0 102014
07:00−2зюз116056 0.0 102088
10:00+5ю2334100 0.0 1018844
13:00+8ю2330100 0.0 10161550
16:00+10ююв2431100 0.0 10141907
19:00+6юв2349100 0.0 101568
22:00+4юз1159100 0.0 101511